Year,Month,Day,Hour,Minute,Value (Times are PST for temperature in C)
2013,04,24,00,00,8.30
2013,04,24,00,01,8.30
2013,04,24,00,02,8.20
2013,04,24,00,03,8.20
2013,04,24,00,04,8.20
2013,04,24,00,05,8.20
2013,04,24,00,06,8.20
2013,04,24,00,07,8.20
2013,04,24,00,08,8.20
2013,04,24,00,09,8.20
2013,04,24,00,10,8.20
2013,04,24,00,11,8.20
2013,04,24,00,12,8.20
2013,04,24,00,13,8.20
2013,04,24,00,14,8.10
2013,04,24,00,15,8.10
2013,04,24,00,16,8.10
2013,04,24,00,17,8.10
2013,04,24,00,18,8.10
2013,04,24,00,19,8.10
2013,04,24,00,20,8.10
2013,04,24,00,21,8.10
2013,04,24,00,22,8.10
2013,04,24,00,23,8.10
2013,04,24,00,24,8.10
2013,04,24,00,25,8.10
2013,04,24,00,26,8.10
2013,04,24,00,27,8.20
2013,04,24,00,28,8.20
2013,04,24,00,29,8.20
2013,04,24,00,30,8.10
2013,04,24,00,31,8.10
2013,04,24,00,32,8.10
2013,04,24,00,33,8.20
2013,04,24,00,34,8.20
2013,04,24,00,35,8.20
2013,04,24,00,36,8.20
2013,04,24,00,37,8.30
2013,04,24,00,38,8.30
2013,04,24,00,39,8.30
2013,04,24,00,40,8.30
2013,04,24,00,41,8.40
2013,04,24,00,42,8.40
2013,04,24,00,43,8.40
2013,04,24,00,44,8.50
2013,04,24,00,45,8.50
2013,04,24,00,46,8.60
2013,04,24,00,47,8.60
2013,04,24,00,48,8.60
2013,04,24,00,49,8.60
2013,04,24,00,50,8.60
2013,04,24,00,51,8.60
2013,04,24,00,52,8.60
2013,04,24,00,53,8.50
2013,04,24,00,54,8.50
2013,04,24,00,55,8.50
2013,04,24,00,56,8.40
2013,04,24,00,57,8.40
2013,04,24,00,58,8.40
2013,04,24,00,59,8.30
2013,04,24,01,00,8.30
2013,04,24,01,01,8.30
2013,04,24,01,02,8.20
2013,04,24,01,03,8.20
2013,04,24,01,04,8.10
2013,04,24,01,05,8.10
2013,04,24,01,06,8.00
2013,04,24,01,07,7.90
2013,04,24,01,08,7.90
2013,04,24,01,09,7.80
2013,04,24,01,10,7.80
2013,04,24,01,11,7.80
2013,04,24,01,12,7.80
2013,04,24,01,13,7.80
2013,04,24,01,14,7.80
2013,04,24,01,15,7.80
2013,04,24,01,16,7.80
2013,04,24,01,17,7.80
2013,04,24,01,18,7.80
2013,04,24,01,19,7.80
2013,04,24,01,20,7.80
2013,04,24,01,21,7.80
2013,04,24,01,22,7.80
2013,04,24,01,23,7.80
2013,04,24,01,24,7.80
2013,04,24,01,25,7.70
2013,04,24,01,26,7.70
2013,04,24,01,27,7.70
2013,04,24,01,28,7.60
2013,04,24,01,29,7.60
2013,04,24,01,30,7.60
2013,04,24,01,31,7.50
2013,04,24,01,32,7.50
2013,04,24,01,33,7.40
2013,04,24,01,34,7.40
2013,04,24,01,35,7.30
2013,04,24,01,36,7.30
2013,04,24,01,37,7.30
2013,04,24,01,38,7.30
2013,04,24,01,39,7.30
2013,04,24,01,40,7.20
2013,04,24,01,41,7.20
2013,04,24,01,42,7.20
2013,04,24,01,43,7.20
2013,04,24,01,44,7.20
2013,04,24,01,45,7.20
2013,04,24,01,46,7.20
2013,04,24,01,47,7.20
2013,04,24,01,48,7.20
2013,04,24,01,49,7.30
2013,04,24,01,50,7.30
2013,04,24,01,51,7.30
2013,04,24,01,52,7.30
2013,04,24,01,53,7.30
2013,04,24,01,54,7.30
2013,04,24,01,55,7.30
2013,04,24,01,56,7.30
2013,04,24,01,57,7.30
2013,04,24,01,58,7.30
2013,04,24,01,59,7.40
2013,04,24,02,00,7.40
2013,04,24,02,01,7.40
2013,04,24,02,02,7.40
2013,04,24,02,03,7.40
2013,04,24,02,04,7.50
2013,04,24,02,05,7.50
2013,04,24,02,06,7.50
2013,04,24,02,07,7.40
2013,04,24,02,08,7.40
2013,04,24,02,09,7.30
2013,04,24,02,10,7.30
2013,04,24,02,11,7.20
2013,04,24,02,12,7.10
2013,04,24,02,13,7.00
2013,04,24,02,14,7.00
2013,04,24,02,15,6.90
2013,04,24,02,16,6.80
2013,04,24,02,17,6.70
2013,04,24,02,18,6.70
2013,04,24,02,19,6.60
2013,04,24,02,20,6.60
2013,04,24,02,21,6.50
2013,04,24,02,22,6.50
2013,04,24,02,23,6.50
2013,04,24,02,24,6.40
2013,04,24,02,25,6.40
2013,04,24,02,26,6.40
2013,04,24,02,27,6.40
2013,04,24,02,28,6.40
2013,04,24,02,29,6.30
2013,04,24,02,30,6.30
2013,04,24,02,31,6.30
2013,04,24,02,32,6.20
2013,04,24,02,33,6.20
2013,04,24,02,34,6.20
2013,04,24,02,35,6.20
2013,04,24,02,36,6.10
2013,04,24,02,37,6.10
2013,04,24,02,38,6.10
2013,04,24,02,39,6.00
2013,04,24,02,40,6.00
2013,04,24,02,41,6.00
2013,04,24,02,42,6.00
2013,04,24,02,43,6.00
2013,04,24,02,44,6.00
2013,04,24,02,45,6.00
2013,04,24,02,46,6.00
2013,04,24,02,47,6.00
2013,04,24,02,48,6.10
2013,04,24,02,49,6.10
2013,04,24,02,50,6.10
2013,04,24,02,51,6.10
2013,04,24,02,52,6.20
2013,04,24,02,53,6.20
2013,04,24,02,54,6.20
2013,04,24,02,55,6.20
2013,04,24,02,56,6.20
2013,04,24,02,57,6.20
2013,04,24,02,58,6.20
2013,04,24,02,59,6.20
2013,04,24,03,00,6.10
2013,04,24,03,01,6.10
2013,04,24,03,02,6.10
2013,04,24,03,03,6.10
2013,04,24,03,04,6.00
2013,04,24,03,05,6.00
2013,04,24,03,06,6.00
2013,04,24,03,07,6.10
2013,04,24,03,08,6.10
2013,04,24,03,09,6.10
2013,04,24,03,10,6.10
2013,04,24,03,11,6.10
2013,04,24,03,12,6.10
2013,04,24,03,13,6.10
2013,04,24,03,14,6.10
2013,04,24,03,15,6.20
2013,04,24,03,16,6.20
2013,04,24,03,17,6.30
2013,04,24,03,18,6.30
2013,04,24,03,19,6.40
2013,04,24,03,20,6.40
2013,04,24,03,21,6.40
2013,04,24,03,22,6.40
2013,04,24,03,23,6.50
2013,04,24,03,24,6.40
2013,04,24,03,25,6.40
2013,04,24,03,26,6.40
2013,04,24,03,27,6.40
2013,04,24,03,28,6.30
2013,04,24,03,29,6.30
2013,04,24,03,30,6.30
2013,04,24,03,31,6.20
2013,04,24,03,32,6.20
2013,04,24,03,33,6.20
2013,04,24,03,34,6.20
2013,04,24,03,35,6.20
2013,04,24,03,36,6.10
2013,04,24,03,37,6.10
2013,04,24,03,38,6.00
2013,04,24,03,39,6.00
2013,04,24,03,40,6.00
2013,04,24,03,41,5.90
2013,04,24,03,42,5.90
2013,04,24,03,43,5.90
2013,04,24,03,44,5.90
2013,04,24,03,45,5.90
2013,04,24,03,46,5.90
2013,04,24,03,47,5.80
2013,04,24,03,48,5.80
2013,04,24,03,49,5.80
2013,04,24,03,50,5.90
2013,04,24,03,51,5.80
2013,04,24,03,52,5.80
2013,04,24,03,53,5.80
2013,04,24,03,54,5.80
2013,04,24,03,55,5.80
2013,04,24,03,56,5.80
2013,04,24,03,57,5.80
2013,04,24,03,58,5.80
2013,04,24,03,59,5.70
2013,04,24,04,00,5.70
2013,04,24,04,01,5.70
2013,04,24,04,02,5.60
2013,04,24,04,03,5.60
2013,04,24,04,04,5.50
2013,04,24,04,05,5.50
2013,04,24,04,06,5.50
2013,04,24,04,07,5.40
2013,04,24,04,08,5.40
2013,04,24,04,09,5.40
2013,04,24,04,10,5.30
2013,04,24,04,11,5.30
2013,04,24,04,12,5.30
2013,04,24,04,13,5.30
2013,04,24,04,14,5.30
2013,04,24,04,15,5.20
2013,04,24,04,16,5.20
2013,04,24,04,17,5.30
2013,04,24,04,18,5.30
2013,04,24,04,19,5.30
2013,04,24,04,20,5.40
2013,04,24,04,21,5.50
2013,04,24,04,22,5.60
2013,04,24,04,23,5.60
2013,04,24,04,24,5.70
2013,04,24,04,25,5.70
2013,04,24,04,26,5.70
2013,04,24,04,27,5.70
2013,04,24,04,28,5.70
2013,04,24,04,29,5.70
2013,04,24,04,30,5.70
2013,04,24,04,31,5.70
2013,04,24,04,32,5.70
2013,04,24,04,33,5.80
2013,04,24,04,34,5.80
2013,04,24,04,35,5.80
2013,04,24,04,36,5.80
2013,04,24,04,37,5.80
2013,04,24,04,38,5.80
2013,04,24,04,39,5.80
2013,04,24,04,40,5.80
2013,04,24,04,41,5.80
2013,04,24,04,42,5.80
2013,04,24,04,43,5.90
2013,04,24,04,44,5.90
2013,04,24,04,45,6.00
2013,04,24,04,46,6.10
2013,04,24,04,47,6.10
2013,04,24,04,48,6.10
2013,04,24,04,49,6.10
2013,04,24,04,50,6.10
2013,04,24,04,51,6.10
2013,04,24,04,52,6.00
2013,04,24,04,53,6.00
2013,04,24,04,54,5.90
2013,04,24,04,55,5.90
2013,04,24,04,56,5.80
2013,04,24,04,57,5.80
2013,04,24,04,58,5.70
2013,04,24,04,59,5.70
2013,04,24,05,00,5.60
2013,04,24,05,01,5.60
2013,04,24,05,02,5.50
2013,04,24,05,03,5.50
2013,04,24,05,04,5.40
2013,04,24,05,05,5.40
2013,04,24,05,06,5.30
2013,04,24,05,07,5.30
2013,04,24,05,08,5.30
2013,04,24,05,09,5.30
2013,04,24,05,10,5.20
2013,04,24,05,11,5.20
2013,04,24,05,12,5.20
2013,04,24,05,13,5.20
2013,04,24,05,14,5.20
2013,04,24,05,15,5.20
2013,04,24,05,16,5.20
2013,04,24,05,17,5.20
2013,04,24,05,18,5.20
2013,04,24,05,19,5.10
2013,04,24,05,20,5.10
2013,04,24,05,21,5.10
2013,04,24,05,22,5.10
2013,04,24,05,23,5.10
2013,04,24,05,24,5.10
2013,04,24,05,25,5.10
2013,04,24,05,26,5.10
2013,04,24,05,27,5.10
2013,04,24,05,28,5.00
2013,04,24,05,29,5.00
2013,04,24,05,30,5.00
2013,04,24,05,31,5.00
2013,04,24,05,32,5.00
2013,04,24,05,33,5.00
2013,04,24,05,34,5.00
2013,04,24,05,35,5.00
2013,04,24,05,36,5.00
2013,04,24,05,37,5.00
2013,04,24,05,38,5.00
2013,04,24,05,39,5.00
2013,04,24,05,40,5.00
2013,04,24,05,41,5.00
2013,04,24,05,42,5.00
2013,04,24,05,43,5.00
2013,04,24,05,44,5.00
2013,04,24,05,45,5.00
2013,04,24,05,46,4.90
2013,04,24,05,47,4.90
2013,04,24,05,48,4.90
2013,04,24,05,49,4.90
2013,04,24,05,50,4.90
2013,04,24,05,51,4.80
2013,04,24,05,52,4.80
2013,04,24,05,53,4.80
2013,04,24,05,54,4.80
2013,04,24,05,55,4.80
2013,04,24,05,56,4.70
2013,04,24,05,57,4.70
2013,04,24,05,58,4.70
2013,04,24,05,59,4.70
2013,04,24,06,00,4.70
2013,04,24,06,01,4.70
2013,04,24,06,02,4.70
2013,04,24,06,03,4.80
2013,04,24,06,04,4.80
2013,04,24,06,05,4.80
2013,04,24,06,06,4.80
2013,04,24,06,07,4.80
2013,04,24,06,08,4.80
2013,04,24,06,09,4.80
2013,04,24,06,10,4.80
2013,04,24,06,11,4.80
2013,04,24,06,12,4.80
2013,04,24,06,13,4.80
2013,04,24,06,14,4.80
2013,04,24,06,15,4.70
2013,04,24,06,16,4.70
2013,04,24,06,17,4.70
2013,04,24,06,18,4.70
2013,04,24,06,19,4.70
2013,04,24,06,20,4.70
2013,04,24,06,21,4.70
2013,04,24,06,22,4.70
2013,04,24,06,23,4.70
2013,04,24,06,24,4.70
2013,04,24,06,25,4.70
2013,04,24,06,26,4.70
2013,04,24,06,27,4.70
2013,04,24,06,28,4.70
2013,04,24,06,29,4.70
2013,04,24,06,30,4.70
2013,04,24,06,31,4.70
2013,04,24,06,32,4.80
2013,04,24,06,33,4.80
2013,04,24,06,34,4.80
2013,04,24,06,35,4.80
2013,04,24,06,36,4.80
2013,04,24,06,37,4.90
2013,04,24,06,38,4.90
2013,04,24,06,39,4.90
2013,04,24,06,40,4.90
2013,04,24,06,41,5.00
2013,04,24,06,42,5.00
2013,04,24,06,43,5.10
2013,04,24,06,44,5.10
2013,04,24,06,45,5.20
2013,04,24,06,46,5.20
2013,04,24,06,47,5.30
2013,04,24,06,48,5.30
2013,04,24,06,49,5.40
2013,04,24,06,50,5.50
2013,04,24,06,51,5.50
2013,04,24,06,52,5.50
2013,04,24,06,53,5.60
2013,04,24,06,54,5.60
2013,04,24,06,55,5.60
2013,04,24,06,56,5.60
2013,04,24,06,57,5.70
2013,04,24,06,58,5.70
2013,04,24,06,59,5.70
2013,04,24,07,00,5.70
2013,04,24,07,01,5.70
2013,04,24,07,02,5.70
2013,04,24,07,03,5.80
2013,04,24,07,04,5.80
2013,04,24,07,05,5.80
2013,04,24,07,06,5.80
2013,04,24,07,07,5.90
2013,04,24,07,08,5.90
2013,04,24,07,09,6.00
2013,04,24,07,10,6.00
2013,04,24,07,11,6.00
2013,04,24,07,12,6.10
2013,04,24,07,13,6.20
2013,04,24,07,14,6.30
2013,04,24,07,15,6.40
2013,04,24,07,16,6.50
2013,04,24,07,17,6.60
2013,04,24,07,18,6.70
2013,04,24,07,19,6.70
2013,04,24,07,20,6.70
2013,04,24,07,21,6.80
2013,04,24,07,22,6.80
2013,04,24,07,23,6.80
2013,04,24,07,24,6.90
2013,04,24,07,25,6.90
2013,04,24,07,26,6.90
2013,04,24,07,27,6.90
2013,04,24,07,28,6.90
2013,04,24,07,29,7.00
2013,04,24,07,30,7.00
2013,04,24,07,31,7.10
2013,04,24,07,32,7.10
2013,04,24,07,33,7.10
2013,04,24,07,34,7.10
2013,04,24,07,35,7.20
2013,04,24,07,36,7.20
2013,04,24,07,37,7.30
2013,04,24,07,38,7.30
2013,04,24,07,39,7.30
2013,04,24,07,40,7.40
2013,04,24,07,41,7.50
2013,04,24,07,42,7.50
2013,04,24,07,43,7.60
2013,04,24,07,44,7.60
2013,04,24,07,45,7.70
2013,04,24,07,46,7.80
2013,04,24,07,47,7.80
2013,04,24,07,48,7.90
2013,04,24,07,49,7.90
2013,04,24,07,50,8.00
2013,04,24,07,51,8.10
2013,04,24,07,52,8.20
2013,04,24,07,53,8.20
2013,04,24,07,54,8.30
2013,04,24,07,55,8.40
2013,04,24,07,56,8.50
2013,04,24,07,57,8.60
2013,04,24,07,58,8.70
2013,04,24,07,59,8.80
2013,04,24,08,00,8.90
2013,04,24,08,01,9.10
2013,04,24,08,02,9.20
2013,04,24,08,03,9.30
2013,04,24,08,04,9.40
2013,04,24,08,05,9.50
2013,04,24,08,06,9.60
2013,04,24,08,07,9.70
2013,04,24,08,08,9.80
2013,04,24,08,09,9.80
2013,04,24,08,10,9.90
2013,04,24,08,11,10.00
2013,04,24,08,12,10.10
2013,04,24,08,13,10.10
2013,04,24,08,14,10.20
2013,04,24,08,15,10.20
2013,04,24,08,16,10.30
2013,04,24,08,17,10.30
2013,04,24,08,18,10.40
2013,04,24,08,19,10.40
2013,04,24,08,20,10.40
2013,04,24,08,21,10.50
2013,04,24,08,22,10.50
2013,04,24,08,23,10.60
2013,04,24,08,24,10.70
2013,04,24,08,25,10.70
2013,04,24,08,26,10.80
2013,04,24,08,27,10.80
2013,04,24,08,28,10.90
2013,04,24,08,29,10.90
2013,04,24,08,30,11.00
2013,04,24,08,31,11.10
2013,04,24,08,32,11.20
2013,04,24,08,33,11.30
2013,04,24,08,34,11.40
2013,04,24,08,35,11.50
2013,04,24,08,36,11.50
2013,04,24,08,37,11.60
2013,04,24,08,38,11.70
2013,04,24,08,39,11.80
2013,04,24,08,40,11.90
2013,04,24,08,41,11.90
2013,04,24,08,42,12.00
2013,04,24,08,43,12.10
2013,04,24,08,44,12.10
2013,04,24,08,45,12.10
2013,04,24,08,46,12.20
2013,04,24,08,47,12.20
2013,04,24,08,48,12.20
2013,04,24,08,49,12.20
2013,04,24,08,50,12.30
2013,04,24,08,51,12.30
2013,04,24,08,52,12.30
2013,04,24,08,53,12.30
2013,04,24,08,54,12.30
2013,04,24,08,55,12.40
2013,04,24,08,56,12.40
2013,04,24,08,57,12.40
2013,04,24,08,58,12.40
2013,04,24,08,59,12.50
2013,04,24,09,00,12.50
2013,04,24,09,01,12.60
2013,04,24,09,02,12.60
2013,04,24,09,03,12.70
2013,04,24,09,04,12.70
2013,04,24,09,05,12.80
2013,04,24,09,06,12.80
2013,04,24,09,07,12.80
2013,04,24,09,08,12.80
2013,04,24,09,09,12.80
2013,04,24,09,10,12.80
2013,04,24,09,11,12.80
2013,04,24,09,12,12.80
2013,04,24,09,13,12.90
2013,04,24,09,14,12.90
2013,04,24,09,15,13.00
2013,04,24,09,16,13.00
2013,04,24,09,17,13.10
2013,04,24,09,18,13.10
2013,04,24,09,19,13.20
2013,04,24,09,20,13.20
2013,04,24,09,21,13.30
2013,04,24,09,22,13.30
2013,04,24,09,23,13.30
2013,04,24,09,24,13.30
2013,04,24,09,25,13.40
2013,04,24,09,26,13.40
2013,04,24,09,27,13.40
2013,04,24,09,28,13.40
2013,04,24,09,29,13.40
2013,04,24,09,30,13.40
2013,04,24,09,31,13.40
2013,04,24,09,32,13.50
2013,04,24,09,33,13.50
2013,04,24,09,34,13.60
2013,04,24,09,35,13.60
2013,04,24,09,36,13.70
2013,04,24,09,37,13.70
2013,04,24,09,38,13.70
2013,04,24,09,39,13.80
2013,04,24,09,40,13.80
2013,04,24,09,41,13.80
2013,04,24,09,42,13.90
2013,04,24,09,43,13.90
2013,04,24,09,44,13.90
2013,04,24,09,45,13.90
2013,04,24,09,46,13.90
2013,04,24,09,47,14.00
2013,04,24,09,48,14.00
2013,04,24,09,49,14.00
2013,04,24,09,50,14.00
2013,04,24,09,51,14.00
2013,04,24,09,52,14.00
2013,04,24,09,53,14.00
2013,04,24,09,54,14.00
2013,04,24,09,55,14.00
2013,04,24,09,56,14.10
2013,04,24,09,57,14.10
2013,04,24,09,58,14.10
2013,04,24,09,59,14.20
2013,04,24,10,00,14.20
2013,04,24,10,01,14.20
2013,04,24,10,02,14.20
2013,04,24,10,03,14.20
2013,04,24,10,04,14.20
2013,04,24,10,05,14.20
2013,04,24,10,06,14.20
2013,04,24,10,07,14.30
2013,04,24,10,08,14.30
2013,04,24,10,09,14.30
2013,04,24,10,10,14.40
2013,04,24,10,11,14.40
2013,04,24,10,12,14.50
2013,04,24,10,13,14.50
2013,04,24,10,14,14.50
2013,04,24,10,15,14.60
2013,04,24,10,16,14.70
2013,04,24,10,17,14.70
2013,04,24,10,18,14.80
2013,04,24,10,19,14.70
2013,04,24,10,20,14.70
2013,04,24,10,21,14.70
2013,04,24,10,22,14.70
2013,04,24,10,23,14.70
2013,04,24,10,24,14.70
2013,04,24,10,25,14.70
2013,04,24,10,26,14.70
2013,04,24,10,27,14.70
2013,04,24,10,28,14.70
2013,04,24,10,29,14.80
2013,04,24,10,30,14.80
2013,04,24,10,31,14.80
2013,04,24,10,32,14.80
2013,04,24,10,33,14.80
2013,04,24,10,34,14.80
2013,04,24,10,35,14.80
2013,04,24,10,36,14.90
2013,04,24,10,37,14.90
2013,04,24,10,38,14.90
2013,04,24,10,39,14.90
2013,04,24,10,40,14.90
2013,04,24,10,41,14.90
2013,04,24,10,42,14.90
2013,04,24,10,43,14.90
2013,04,24,10,44,14.90
2013,04,24,10,45,14.90
2013,04,24,10,46,15.00
2013,04,24,10,47,15.00
2013,04,24,10,48,15.10
2013,04,24,10,49,15.10
2013,04,24,10,50,15.20
2013,04,24,10,51,15.20
2013,04,24,10,52,15.30
2013,04,24,10,53,15.30
2013,04,24,10,54,15.30
2013,04,24,10,55,15.30
2013,04,24,10,56,15.30
2013,04,24,10,57,15.30
2013,04,24,10,58,15.30
2013,04,24,10,59,15.30
2013,04,24,11,00,15.30
2013,04,24,11,01,15.30
2013,04,24,11,02,15.20
2013,04,24,11,03,15.20
2013,04,24,11,04,15.20
2013,04,24,11,05,15.20
2013,04,24,11,06,15.20
2013,04,24,11,07,15.20
2013,04,24,11,08,15.20
2013,04,24,11,09,15.30
2013,04,24,11,10,15.30
2013,04,24,11,11,15.30
2013,04,24,11,12,15.30
2013,04,24,11,13,15.30
2013,04,24,11,14,15.20
2013,04,24,11,15,15.20
2013,04,24,11,16,15.20
2013,04,24,11,17,15.20
2013,04,24,11,18,15.10
2013,04,24,11,19,15.10
2013,04,24,11,20,15.00
2013,04,24,11,21,15.00
2013,04,24,11,22,14.90
2013,04,24,11,23,14.90
2013,04,24,11,24,14.90
2013,04,24,11,25,14.90
2013,04,24,11,26,14.90
2013,04,24,11,27,14.90
2013,04,24,11,28,14.90
2013,04,24,11,29,14.90
2013,04,24,11,30,14.90
2013,04,24,11,31,14.90
2013,04,24,11,32,14.90
2013,04,24,11,33,14.90
2013,04,24,11,34,14.90
2013,04,24,11,35,14.90
2013,04,24,11,36,15.00
2013,04,24,11,37,15.00
2013,04,24,11,38,15.10
2013,04,24,11,39,15.20
2013,04,24,11,40,15.30
2013,04,24,11,41,15.40
2013,04,24,11,42,15.40
2013,04,24,11,43,15.50
2013,04,24,11,44,15.60
2013,04,24,11,45,15.60
2013,04,24,11,46,15.60
2013,04,24,11,47,15.60
2013,04,24,11,48,15.60
2013,04,24,11,49,15.50
2013,04,24,11,50,15.50
2013,04,24,11,51,15.50
2013,04,24,11,52,15.50
2013,04,24,11,53,15.40
2013,04,24,11,54,15.40
2013,04,24,11,55,15.30
2013,04,24,11,56,15.30
2013,04,24,11,57,15.40
2013,04,24,11,58,15.50
2013,04,24,11,59,15.60
2013,04,24,12,00,15.80
2013,04,24,12,01,15.90
2013,04,24,12,02,16.00
2013,04,24,12,03,16.10
2013,04,24,12,04,16.10
2013,04,24,12,05,16.10
2013,04,24,12,06,16.00
2013,04,24,12,07,16.00
2013,04,24,12,08,15.90
2013,04,24,12,09,15.90
2013,04,24,12,10,16.00
2013,04,24,12,11,16.10
2013,04,24,12,12,16.20
2013,04,24,12,13,16.30
2013,04,24,12,14,16.30
2013,04,24,12,15,16.40
2013,04,24,12,16,16.40
2013,04,24,12,17,16.40
2013,04,24,12,18,16.40
2013,04,24,12,19,16.40
2013,04,24,12,20,16.40
2013,04,24,12,21,16.40
2013,04,24,12,22,16.40
2013,04,24,12,23,16.40
2013,04,24,12,24,16.40
2013,04,24,12,25,16.40
2013,04,24,12,26,16.30
2013,04,24,12,27,16.20
2013,04,24,12,28,16.10
2013,04,24,12,29,16.00
2013,04,24,12,30,15.90
2013,04,24,12,31,15.90
2013,04,24,12,32,15.80
2013,04,24,12,33,15.80
2013,04,24,12,34,15.80
2013,04,24,12,35,15.90
2013,04,24,12,36,15.80
2013,04,24,12,37,15.90
2013,04,24,12,38,15.90
2013,04,24,12,39,15.80
2013,04,24,12,40,15.80
2013,04,24,12,41,15.60
2013,04,24,12,42,15.50
2013,04,24,12,43,15.30
2013,04,24,12,44,15.30
2013,04,24,12,45,15.20
2013,04,24,12,46,15.20
2013,04,24,12,47,15.30
2013,04,24,12,48,15.30
2013,04,24,12,49,15.40
2013,04,24,12,50,15.50
2013,04,24,12,51,15.50
2013,04,24,12,52,15.60
2013,04,24,12,53,15.70
2013,04,24,12,54,15.70
2013,04,24,12,55,15.80
2013,04,24,12,56,15.80
2013,04,24,12,57,15.80
2013,04,24,12,58,15.80
2013,04,24,12,59,15.80
2013,04,24,13,00,15.80
2013,04,24,13,01,15.90
2013,04,24,13,02,15.90
2013,04,24,13,03,16.00
2013,04,24,13,04,16.00
2013,04,24,13,05,16.10
2013,04,24,13,06,16.10
2013,04,24,13,07,16.20
2013,04,24,13,08,16.30
2013,04,24,13,09,16.30
2013,04,24,13,10,16.50
2013,04,24,13,11,16.60
2013,04,24,13,12,16.70
2013,04,24,13,13,16.70
2013,04,24,13,14,16.70
2013,04,24,13,15,16.60
2013,04,24,13,16,16.50
2013,04,24,13,17,16.40
2013,04,24,13,18,16.40
2013,04,24,13,19,16.30
2013,04,24,13,20,16.30
2013,04,24,13,21,16.30
2013,04,24,13,22,16.40
2013,04,24,13,23,16.50
2013,04,24,13,24,16.60
2013,04,24,13,25,16.60
2013,04,24,13,26,16.70
2013,04,24,13,27,16.70
2013,04,24,13,28,16.70
2013,04,24,13,29,16.70
2013,04,24,13,30,16.60
2013,04,24,13,31,16.60
2013,04,24,13,32,16.70
2013,04,24,13,33,16.70
2013,04,24,13,34,16.70
2013,04,24,13,35,16.70
2013,04,24,13,36,16.70
2013,04,24,13,37,16.70
2013,04,24,13,38,16.70
2013,04,24,13,39,16.60
2013,04,24,13,40,16.60
2013,04,24,13,41,16.50
2013,04,24,13,42,16.40
2013,04,24,13,43,16.40
2013,04,24,13,44,16.30
2013,04,24,13,45,16.30
2013,04,24,13,46,16.30
2013,04,24,13,47,16.30
2013,04,24,13,48,16.40
2013,04,24,13,49,16.50
2013,04,24,13,50,16.60
2013,04,24,13,51,16.60
2013,04,24,13,52,16.70
2013,04,24,13,53,16.70
2013,04,24,13,54,16.70
2013,04,24,13,55,16.80
2013,04,24,13,56,16.90
2013,04,24,13,57,17.00
2013,04,24,13,58,17.00
2013,04,24,13,59,17.10
2013,04,24,14,00,17.20
2013,04,24,14,01,17.20
2013,04,24,14,02,17.20
2013,04,24,14,03,17.30
2013,04,24,14,04,17.30
2013,04,24,14,05,17.30
2013,04,24,14,06,17.30
2013,04,24,14,07,17.30
2013,04,24,14,08,17.40
2013,04,24,14,09,17.40
2013,04,24,14,10,17.30
2013,04,24,14,11,17.30
2013,04,24,14,12,17.20
2013,04,24,14,13,17.20
2013,04,24,14,14,17.20
2013,04,24,14,15,17.00
2013,04,24,14,16,16.90
2013,04,24,14,17,16.80
2013,04,24,14,18,16.70
2013,04,24,14,19,16.70
2013,04,24,14,20,16.70
2013,04,24,14,21,16.80
2013,04,24,14,22,16.90
2013,04,24,14,23,17.00
2013,04,24,14,24,17.10
2013,04,24,14,25,17.30
2013,04,24,14,26,17.40
2013,04,24,14,27,17.60
2013,04,24,14,28,17.70
2013,04,24,14,29,17.90
2013,04,24,14,30,18.00
2013,04,24,14,31,18.00
2013,04,24,14,32,18.00
2013,04,24,14,33,18.10
2013,04,24,14,34,18.10
2013,04,24,14,35,18.10
2013,04,24,14,36,18.20
2013,04,24,14,37,18.20
2013,04,24,14,38,18.30
2013,04,24,14,39,18.30
2013,04,24,14,40,18.40
2013,04,24,14,41,18.50
2013,04,24,14,42,18.60
2013,04,24,14,43,18.60
2013,04,24,14,44,18.60
2013,04,24,14,45,18.60
2013,04,24,14,46,18.70
2013,04,24,14,47,18.70
2013,04,24,14,48,18.70
2013,04,24,14,49,18.60
2013,04,24,14,50,18.40
2013,04,24,14,51,18.30
2013,04,24,14,52,18.30
2013,04,24,14,53,18.30
2013,04,24,14,54,18.30
2013,04,24,14,55,18.30
2013,04,24,14,56,18.40
2013,04,24,14,57,18.40
2013,04,24,14,58,18.50
2013,04,24,14,59,18.50
2013,04,24,15,00,18.60
2013,04,24,15,01,18.60
2013,04,24,15,02,18.60
2013,04,24,15,03,18.60
2013,04,24,15,04,18.60
2013,04,24,15,05,18.50
2013,04,24,15,06,18.40
2013,04,24,15,07,18.30
2013,04,24,15,08,18.30
2013,04,24,15,09,18.20
2013,04,24,15,10,18.10
2013,04,24,15,11,18.10
2013,04,24,15,12,18.10
2013,04,24,15,13,18.00
2013,04,24,15,14,18.00
2013,04,24,15,15,18.10
2013,04,24,15,16,18.10
2013,04,24,15,17,18.20
2013,04,24,15,18,18.30
2013,04,24,15,19,18.30
2013,04,24,15,20,18.40
2013,04,24,15,21,18.40
2013,04,24,15,22,18.50
2013,04,24,15,23,18.50
2013,04,24,15,24,18.50
2013,04,24,15,25,18.40
2013,04,24,15,26,18.40
2013,04,24,15,27,18.40
2013,04,24,15,28,18.40
2013,04,24,15,29,18.50
2013,04,24,15,30,18.50
2013,04,24,15,31,18.40
2013,04,24,15,32,18.40
2013,04,24,15,33,18.30
2013,04,24,15,34,18.30
2013,04,24,15,35,18.30
2013,04,24,15,36,18.30
2013,04,24,15,37,18.40
2013,04,24,15,38,18.40
2013,04,24,15,39,18.40
2013,04,24,15,40,18.40
2013,04,24,15,41,18.50
2013,04,24,15,42,18.50
2013,04,24,15,43,18.40
2013,04,24,15,44,18.20
2013,04,24,15,45,18.00
2013,04,24,15,46,17.80
2013,04,24,15,47,17.50
2013,04,24,15,48,17.40
2013,04,24,15,49,17.30
2013,04,24,15,50,17.30
2013,04,24,15,51,17.20
2013,04,24,15,52,17.10
2013,04,24,15,53,17.10
2013,04,24,15,54,17.10
2013,04,24,15,55,17.10
2013,04,24,15,56,17.10
2013,04,24,15,57,17.10
2013,04,24,15,58,17.00
2013,04,24,15,59,17.00
2013,04,24,16,00,17.00
2013,04,24,16,01,17.10
2013,04,24,16,02,17.10
2013,04,24,16,03,17.20
2013,04,24,16,04,17.20
2013,04,24,16,05,17.20
2013,04,24,16,06,17.10
2013,04,24,16,07,17.10
2013,04,24,16,08,17.00
2013,04,24,16,09,17.00
2013,04,24,16,10,17.00
2013,04,24,16,11,16.90
2013,04,24,16,12,16.90
2013,04,24,16,13,16.90
2013,04,24,16,14,16.90
2013,04,24,16,15,16.90
2013,04,24,16,16,16.80
2013,04,24,16,17,16.70
2013,04,24,16,18,16.60
2013,04,24,16,19,16.60
2013,04,24,16,20,16.60
2013,04,24,16,21,16.60
2013,04,24,16,22,16.60
2013,04,24,16,23,16.50
2013,04,24,16,24,16.40
2013,04,24,16,25,16.30
2013,04,24,16,26,16.30
2013,04,24,16,27,16.40
2013,04,24,16,28,16.40
2013,04,24,16,29,16.40
2013,04,24,16,30,16.40
2013,04,24,16,31,16.30
2013,04,24,16,32,16.20
2013,04,24,16,33,16.10
2013,04,24,16,34,16.10
2013,04,24,16,35,16.00
2013,04,24,16,36,16.00
2013,04,24,16,37,16.10
2013,04,24,16,38,16.10
2013,04,24,16,39,16.10
2013,04,24,16,40,16.00
2013,04,24,16,41,16.00
2013,04,24,16,42,16.00
2013,04,24,16,43,16.00
2013,04,24,16,44,15.90
2013,04,24,16,45,15.90
2013,04,24,16,46,15.90
2013,04,24,16,47,15.90
2013,04,24,16,48,15.90
2013,04,24,16,49,15.90
2013,04,24,16,50,15.90
2013,04,24,16,51,15.80
2013,04,24,16,52,15.80
2013,04,24,16,53,15.70
2013,04,24,16,54,15.70
2013,04,24,16,55,15.70
2013,04,24,16,56,15.60
2013,04,24,16,57,15.50
2013,04,24,16,58,15.40
2013,04,24,16,59,15.30
2013,04,24,17,00,15.20
2013,04,24,17,01,15.10
2013,04,24,17,02,15.00
2013,04,24,17,03,15.00
2013,04,24,17,04,14.90
2013,04,24,17,05,14.90
2013,04,24,17,06,14.90
2013,04,24,17,07,14.90
2013,04,24,17,08,14.80
2013,04,24,17,09,14.80
2013,04,24,17,10,14.80
2013,04,24,17,11,14.80
2013,04,24,17,12,14.80
2013,04,24,17,13,14.90
2013,04,24,17,14,14.90
2013,04,24,17,15,15.00
2013,04,24,17,16,15.10
2013,04,24,17,17,15.20
2013,04,24,17,18,15.20
2013,04,24,17,19,15.30
2013,04,24,17,20,15.40
2013,04,24,17,21,15.40
2013,04,24,17,22,15.40
2013,04,24,17,23,15.50
2013,04,24,17,24,15.50
2013,04,24,17,25,15.60
2013,04,24,17,26,15.60
2013,04,24,17,27,15.60
2013,04,24,17,28,15.60
2013,04,24,17,29,15.70
2013,04,24,17,30,15.80
2013,04,24,17,31,15.90
2013,04,24,17,32,16.00
2013,04,24,17,33,16.10
2013,04,24,17,34,16.10
2013,04,24,17,35,16.20
2013,04,24,17,36,16.20
2013,04,24,17,37,16.20
2013,04,24,17,38,16.30
2013,04,24,17,39,16.30
2013,04,24,17,40,16.40